Flag for United Kingdom Weather past 2 weeks in Bangor, Wales, United Kingdom

Now
53 °F

Cool.


Feels Like: 51 °F
Forecast: 50 / 61 °F
Wind: 6 mph from Northwest

Location: Capel Curig

Current Time: Jul 29, 2015 at 10:04:07 PM

Latest Report: Jul 29, 2015 at 9:00 PM


Visibility: 25 mi

Pressure: 30.01 "Hg

Humidity: 76%

Dew point: 45 °F

Location of BangorLocation

Historic Weather in Bangor — Graph

°F

Bangor temperature yesterday

Maximum temperature yesterday: 58 °F (at 4:00 PM)
Minimum temperature yesterday: 51 °F (at 11:00 PM)
Average temperature yesterday: 53 °F

Past Weeks' High & Low Weather Summary

 TemperatureHumidityPressure
High61 °F (Jul 20, 1:00 PM)98% (Jul 20, 1:00 PM)30.18 "Hg (Jul 20, 1:00 PM)
Low39 °F (Jul 16, 5:00 AM)49% (Jul 15, 12:00 PM)29.29 "Hg (Jul 26, 8:00 PM)
Average54 °F83%29.82 "Hg
* Reported Jul 14 8:00 PM — Jul 29 8:00 PM, Bangor, Weather by CustomWeather, © 2015

Note: Actual official high and low records may vary slightly from our data, if they occured in-between our weather recording intervals... More about our weather records

Advertising

Bangor weather history for previous 24 hours

 ConditionsComfort  
Time TempWeatherWind HumidityBarometerVisibility
8:00 PM
Wed, Jul 29
54 °FCool.6 mph69%30.00 "Hg31 mi
6:00 PM54 °FCool.7 mph75%29.97 "Hg28 mi
5:00 PM53 °FCool.7 mph86%29.97 "Hg9 mi
4:00 PM52 °FCool.8 mph85%29.96 "Hg10 mi
3:00 PM53 °FCool.5 mph84%29.95 "Hg25 mi
2:00 PM54 °FCool.8 mph81%29.93 "Hg12 mi
1:00 PM52 °FCool.7 mph87%29.92 "Hg16 mi
12:00 PM53 °FCool.6 mph80%29.90 "Hg4 mi
11:00 AM52 °FCool.9 mph81%29.89 "Hg3 mi
10:00 AM51 °FCool.7 mph85%29.87 "Hg5 mi
9:00 AM52 °FCool.3 mph81%29.85 "Hg6 mi
8:00 AM52 °FCool.9 mph83%29.83 "Hg6 mi
7:00 AM51 °FCool.7 mph87%29.81 "Hg17 mi
6:00 AM50 °FCool.3 mph90%29.80 "Hg31 mi
5:00 AM50 °FCool.9 mph90%29.79 "Hg25 mi
4:00 AM50 °FCool.13 mph89%29.78 "Hg28 mi
3:00 AM50 °FCool.15 mph91%29.78 "Hg4 mi
2:00 AM51 °FCool.9 mph86%29.78 "Hg31 mi
1:00 AM50 °FCool.14 mph89%29.78 "Hg25 mi
12:00 AM49 °FCool.10 mph84%29.78 "Hg31 mi
11:00 PM
Tue, Jul 28
51 °FCool.12 mph88%29.77 "Hg28 mi
Weather by CustomWeather, © 2015

See weather overviewHow to use our weather pages